User: anonymous   Login
Location: Caltech
(34.1382°N, 118.1253°W)
Time: 22:55:36
(UTC-07:00)
Language:

SL-08 R/B - Orbit

View from above orbital plane
View from above orbital plane
View from above satellite
View from above satellite

Ground track
Ground track

The orbit data is extracted from the following two-line orbital elements,

1 27561U 02054C   16122.08151267  .00000126  00000-0  39175-4 0  9992
2 27561  98.1999 255.8512 0046422  11.9004 348.3279 14.55524001712338
Epoch (UTC): 01 May 2016 01:57:22
Eccentricity: 0.0046422
inclination: 98.1999°
perigee height: 675 km
apogee height: 740 km
right ascension of ascending node: 255.8512°
argument of perigee: 11.9004°
revolutions per day: 14.55524001
mean anomaly at epoch: 348.3279°
orbit number at epoch: 71233

The dashed part of the orbit path shows where the satellite is in the earth's shadow,  

DLR